Tracking 21092 objects as of 14-Aug-2020
HD Live streaming from Space Station
objects crossing your sky now
Track the most recent launched group of Starlink satellites

COSMOS 1431

Track COSMOS 1431 now!
10-day predictions
COSMOS 1431 is classified as:


NORAD ID: 13763
Int'l Code: 1983-002C
Perigee: 1,472.0 km
Apogee: 1,490.5 km
Inclination: 74.0 °
Period: 115.4 minutes
Semi major axis: 7852 km
RCS: 0.6684 m2 (medium)
Launch date: January 19, 1983
Source: Commonwealth of Independent States (former USSR) (CIS)
Launch site: PLESETSK MISSILE AND SPACE COMPLEX (PKMTR)
aabbcc
Your satellite tracking list
Your tracking list is empty




NASA's NSSDC Master Catalog

Two Line Element Set (TLE):
1 13763U 83002C   20227.56415791 -.00000022 +00000-0 -40454-4 0  9991
2 13763 074.0266 001.3515 0011759 230.3886 203.0397 12.47710700711186
Source of the keplerian elements: AFSPC